| time (UTC) | temp F | wind direction | speed knots | gust knots | rain 1hr in | rain 24hr in | rain mn in | humidity % | barometer mb |
| 20260902162020 | 59 | 304 | 2.6 | 7.8 | 0.00 | 0.00 | 0.00 | 78 | 956.3 |
| 20260902161520 | 60 | 269 | 2.6 | 7.8 | 0.00 | 0.00 | 0.00 | 74 | 956.3 |
| 20260902161020 | 60 | 249 | 1.7 | 5.2 | 0.00 | 0.00 | 0.00 | 75 | 956.3 |
| 20260902160520 | 60 | 233 | 2.6 | 9.6 | 0.00 | 0.00 | 0.00 | 74 | 956.1 |
| 20260902160020 | 60 | 160 | 4.3 | 13.0 | 0.00 | 0.00 | 0.00 | 74 | 956.1 |
| 20260902155520 | 60 | 113 | 6.1 | 14.8 | 0.00 | 0.00 | 0.00 | 75 | 956.0 |
| 20260902155020 | 60 | 114 | 7.8 | 15.6 | 0.00 | 0.00 | 0.00 | 75 | 955.9 |
| 20260902154520 | 60 | 106 | 7.8 | 15.6 | 0.00 | 0.00 | 0.00 | 72 | 955.9 |
| 20260902154020 | 61 | 109 | 7.8 | 14.8 | 0.00 | 0.00 | 0.00 | 70 | 956.0 |
| 20260902153520 | 60 | 96 | 7.8 | 13.9 | 0.00 | 0.00 | 0.00 | 75 | 956.0 |
| 20260902153020 | 60 | 97 | 7.8 | 13.0 | 0.00 | 0.00 | 0.00 | 73 | 956.0 |
| 20260902152520 | 60 | 105 | 6.1 | 13.0 | 0.00 | 0.00 | 0.00 | 74 | 956.0 |
| 20260902152020 | 61 | 91 | 5.2 | 11.3 | 0.00 | 0.00 | 0.00 | 74 | 956.1 |
| 20260902151519 | 60 | 109 | 6.1 | 11.3 | 0.00 | 0.00 | 0.00 | 74 | 956.0 |
| 20260902151019 | 60 | 90 | 5.2 | 11.3 | 0.00 | 0.00 | 0.00 | 75 | 956.0 |
| 20260902150519 | 61 | 85 | 5.2 | 11.3 | 0.00 | 0.00 | 0.00 | 77 | 955.9 |
| 20260902150019 | 60 | 65 | 4.3 | 8.7 | 0.00 | 0.00 | 0.00 | 78 | 955.8 |
| 20260902145519 | 61 | 100 | 4.3 | 7.8 | 0.00 | 0.00 | 0.00 | 75 | 955.9 |
| 20260902145019 | 61 | 77 | 2.6 | 9.6 | 0.00 | 0.00 | 0.00 | 73 | 956.1 |
| 20260902144519 | 62 | 176 | 2.6 | 9.6 | 0.00 | 0.00 | 0.00 | 66 | 956.1 |
| 20260902144019 | 62 | 54 | 2.6 | 8.7 | 0.00 | 0.00 | 0.00 | 75 | 956.5 |
| 20260902143519 | 61 | 212 | 3.5 | 8.7 | 0.00 | 0.00 | 0.00 | 75 | 956.4 |
| 20260902143019 | 62 | 245 | 3.5 | 8.7 | 0.00 | 0.00 | 0.00 | 73 | 956.4 |
| 20260902142519 | 62 | 232 | 2.6 | 9.6 | 0.00 | 0.00 | 0.00 | 71 | 956.4 |
| 20260902142019 | 63 | 260 | 4.3 | 13.0 | 0.00 | 0.00 | 0.00 | 70 | 956.5 |
| 20260902141519 | 63 | 175 | 7.0 | 14.8 | 0.00 | 0.00 | 0.00 | 70 | 956.4 |
| 20260902141019 | 64 | 104 | 7.0 | 14.8 | 0.00 | 0.00 | 0.00 | 69 | 956.4 |
| 20260902140519 | 64 | 100 | 7.0 | 13.9 | 0.00 | 0.00 | 0.00 | 68 | 956.5 |
| 20260902140018 | 64 | 226 | 6.1 | 13.9 | 0.00 | 0.00 | 0.00 | 68 | 956.5 |
| 20260902135518 | 65 | 97 | 4.3 | 13.9 | 0.00 | 0.00 | 0.00 | 66 | 956.5 |
| 20260902135018 | 64 | 118 | 4.3 | 12.2 | 0.00 | 0.00 | 0.00 | 68 | 956.6 |
| 20260902134518 | 64 | 146 | 7.0 | 13.0 | 0.00 | 0.00 | 0.00 | 68 | 956.6 |
| 20260902134018 | 64 | 109 | 7.0 | 13.0 | 0.00 | 0.00 | 0.00 | 66 | 956.7 |
| 20260902133518 | 65 | 108 | 7.0 | 12.2 | 0.00 | 0.00 | 0.00 | 64 | 956.5 |
| 20260902133018 | 65 | 75 | 6.1 | 12.2 | 0.00 | 0.00 | 0.00 | 65 | 956.6 |
| 20260902132518 | 64 | 115 | 5.2 | 12.2 | 0.00 | 0.00 | 0.00 | 67 | 956.5 |
| 20260902132018 | 64 | 74 | 5.2 | 10.4 | 0.00 | 0.00 | 0.00 | 70 | 956.7 |
| 20260902131518 | 62 | 104 | 6.1 | 10.4 | 0.00 | 0.00 | 0.00 | 71 | 956.7 |
| 20260902131018 | 62 | 112 | 6.1 | 11.3 | 0.00 | 0.00 | 0.00 | 70 | 956.8 |
| 20260902130518 | 64 | 107 | 6.1 | 11.3 | 0.00 | 0.00 | 0.00 | 67 | 956.9 |
| 20260902130018 | 65 | 86 | 5.2 | 10.4 | 0.00 | 0.00 | 0.00 | 68 | 957.0 |
| 20260902125518 | 64 | 113 | 5.2 | 10.4 | 0.00 | 0.00 | 0.00 | 66 | 957.0 |
| 20260902125017 | 64 | 107 | 5.2 | 11.3 | 0.00 | 0.00 | 0.00 | 65 | 956.9 |
| 20260902124517 | 65 | 95 | 6.1 | 13.0 | 0.00 | 0.00 | 0.00 | 70 | 957.0 |
| 20260902124017 | 63 | 134 | 6.1 | 13.0 | 0.00 | 0.00 | 0.00 | 71 | 957.1 |
| 20260902123517 | 64 | 66 | 7.0 | 13.0 | 0.00 | 0.00 | 0.00 | 67 | 957.1 |
| 20260902123017 | 64 | 109 | 7.0 | 13.0 | 0.00 | 0.00 | 0.00 | 68 | 957.1 |
| 20260902122517 | 65 | 164 | 7.0 | 13.0 | 0.00 | 0.00 | 0.00 | 68 | 957.2 |
| 20260902122017 | 64 | 87 | 7.0 | 13.9 | 0.00 | 0.00 | 0.00 | 70 | 957.3 |
| 20260902121517 | 64 | 114 | 6.1 | 13.9 | 0.00 | 0.00 | 0.00 | 68 | 957.3 |
| 20260902121017 | 65 | 111 | 5.2 | 12.2 | 0.00 | 0.00 | 0.00 | 71 | 957.4 |
| 20260902120517 | 65 | 105 | 5.2 | 13.0 | 0.00 | 0.00 | 0.00 | 71 | 957.4 |
| 20260902120017 | 63 | 98 | 5.2 | 13.0 | 0.00 | 0.00 | 0.00 | 71 | 957.5 |
| 20260902115517 | 64 | 115 | 3.5 | 9.6 | 0.00 | 0.00 | 0.00 | 71 | 957.4 |
| 20260902115017 | 65 | 152 | 2.6 | 8.7 | 0.00 | 0.00 | 0.00 | 73 | 957.5 |
| 20260902114517 | 65 | 217 | 1.7 | 8.7 | 0.00 | 0.00 | 0.00 | 75 | 957.6 |
| 20260902114016 | 64 | 82 | 3.5 | 13.0 | 0.00 | 0.00 | 0.00 | 76 | 957.5 |
| 20260902113516 | 62 | 239 | 5.2 | 13.0 | 0.00 | 0.00 | 0.00 | 78 | 957.5 |
| 20260902113016 | 62 | 99 | 5.2 | 12.2 | 0.00 | 0.00 | 0.00 | 77 | 957.6 |
| 20260902112516 | 62 | 67 | 5.2 | 8.7 | 0.00 | 0.00 | 0.00 | 77 | 957.6 |
| 20260902112016 | 62 | 83 | 5.2 | 10.4 | 0.00 | 0.00 | 0.00 | 78 | 957.6 |
| 20260902111516 | 61 | 91 | 5.2 | 10.4 | 0.00 | 0.00 | 0.00 | 77 | 957.6 |
| 20260902111016 | 61 | 87 | 4.3 | 9.6 | 0.00 | 0.00 | 0.00 | 77 | 957.7 |
| 20260902110516 | 62 | 114 | 3.5 | 7.8 | 0.00 | 0.00 | 0.00 | 77 | 957.8 |
| 20260902110016 | 62 | 110 | 2.6 | 7.8 | 0.00 | 0.00 | 0.00 | 76 | 957.8 |
| 20260902105516 | 61 | 104 | 3.5 | 7.8 | 0.00 | 0.00 | 0.00 | 79 | 957.8 |
| 20260902105016 | 61 | 120 | 4.3 | 7.8 | 0.00 | 0.00 | 0.00 | 78 | 957.8 |
| 20260902104516 | 62 | 76 | 2.6 | 7.0 | 0.00 | 0.00 | 0.00 | 73 | 957.7 |
| 20260902104016 | 64 | 67 | 3.5 | 8.7 | 0.00 | 0.00 | 0.00 | 76 | 957.9 |
| 20260902103516 | 62 | 82 | 4.3 | 8.7 | 0.00 | 0.00 | 0.00 | 76 | 957.8 |
| 20260902103016 | 63 | 98 | 4.3 | 8.7 | 0.00 | 0.00 | 0.00 | 73 | 957.9 |
| 20260902102516 | 63 | 71 | 3.5 | 7.8 | 0.00 | 0.00 | 0.00 | 75 | 957.8 |
| 20260902102015 | 64 | 112 | 3.5 | 9.6 | 0.00 | 0.00 | 0.00 | 74 | 957.8 |
| 20260902101515 | 64 | 283 | 3.5 | 9.6 | 0.00 | 0.00 | 0.00 | 77 | 958.0 |
| 20260902101015 | 64 | 129 | 3.5 | 9.6 | 0.00 | 0.00 | 0.00 | 77 | 957.9 |
| 20260902100515 | 62 | 97 | 2.6 | 8.7 | 0.00 | 0.00 | 0.00 | 76 | 957.9 |
| 20260902100015 | 64 | 76 | 1.7 | 8.7 | 0.00 | 0.00 | 0.00 | 74 | 958.0 |
| 20260902095515 | 63 | 38 | 1.7 | 6.1 | 0.00 | 0.00 | 0.00 | 78 | 958.0 |
| 20260902095015 | 62 | 286 | 2.6 | 6.1 | 0.00 | 0.00 | 0.00 | 80 | 958.0 |
| 20260902094515 | 61 | 113 | 2.6 | 7.0 | 0.00 | 0.00 | 0.00 | 77 | 957.9 |
| 20260902094015 | 61 | 98 | 2.6 | 7.0 | 0.00 | 0.00 | 0.00 | 77 | 958.0 |
| 20260902093515 | 64 | 222 | 1.7 | 7.8 | 0.00 | 0.00 | 0.00 | 75 | 958.3 |
| 20260902093015 | 65 | 76 | 2.6 | 9.6 | 0.00 | 0.00 | 0.00 | 74 | 958.2 |
| 20260902092515 | 66 | 147 | 2.6 | 9.6 | 0.00 | 0.00 | 0.00 | 76 | 958.4 |
| 20260902092015 | 65 | 315 | 2.6 | 7.8 | 0.00 | 0.00 | 0.00 | 81 | 958.2 |
| 20260902091515 | 62 | 128 | 3.5 | 7.8 | 0.00 | 0.00 | 0.00 | 86 | 958.3 |
| 20260902091015 | 59 | 110 | 4.3 | 9.6 | 0.00 | 0.00 | 0.00 | 87 | 958.2 |
| 20260902090514 | 58 | 112 | 4.3 | 9.6 | 0.00 | 0.00 | 0.00 | 88 | 958.1 |
| 20260902090014 | 59 | 113 | 3.5 | 8.7 | 0.00 | 0.00 | 0.00 | 86 | 958.1 |
| 20260902085514 | 59 | 114 | 2.6 | 7.8 | 0.00 | 0.00 | 0.00 | 87 | 958.3 |
| 20260902085014 | 58 | 76 | 4.3 | 8.7 | 0.00 | 0.00 | 0.00 | 86 | 958.1 |
| 20260902084514 | 57 | 242 | 4.3 | 8.7 | 0.00 | 0.00 | 0.00 | 92 | 958.2 |
| 20260902084014 | 57 | 71 | 5.2 | 9.6 | 0.00 | 0.00 | 0.00 | 88 | 958.0 |
| 20260902083514 | 57 | 82 | 5.2 | 9.6 | 0.00 | 0.00 | 0.00 | 88 | 958.2 |
| 20260902083014 | 57 | 60 | 4.3 | 9.6 | 0.00 | 0.00 | 0.00 | 87 | 957.8 |
| 20260902082514 | 56 | 111 | 4.3 | 7.8 | 0.00 | 0.00 | 0.00 | 89 | 957.9 |
| 20260902082014 | 55 | 72 | 4.3 | 7.8 | 0.00 | 0.00 | 0.00 | 92 | 957.9 |
| 20260902081514 | 56 | 94 | 4.3 | 7.8 | 0.00 | 0.00 | 0.00 | 91 | 957.9 |
| 20260902081014 | 55 | 76 | 4.3 | 7.8 | 0.00 | 0.00 | 0.00 | 93 | 957.9 |
| 20260902080514 | 55 | 5 | 5.2 | 8.7 | 0.00 | 0.00 | 0.00 | 93 | 957.9 |
| 20260902080014 | 55 | 52 | 4.3 | 8.7 | 0.00 | 0.00 | 0.00 | 92 | 958.0 |
| 20260902075514 | 56 | 66 | 3.5 | 7.8 | 0.00 | 0.00 | 0.00 | 89 | 957.9 |
| 20260902075014 | 57 | 121 | 2.6 | 6.1 | 0.00 | 0.00 | 0.00 | 91 | 958.3 |
| 20260902074513 | 55 | 102 | 3.5 | 6.1 | 0.00 | 0.00 | 0.00 | 94 | 958.3 |
| 20260902074013 | 54 | 112 | 3.5 | 6.1 | 0.00 | 0.00 | 0.00 | 95 | 958.4 |
| 20260902073513 | 54 | 105 | 3.5 | 6.1 | 0.00 | 0.00 | 0.00 | 95 | 958.3 |
| 20260902073013 | 54 | 126 | 3.5 | 7.0 | 0.00 | 0.00 | 0.00 | 96 | 958.3 |
| 20260902072513 | 53 | 91 | 4.3 | 7.8 | 0.00 | 0.00 | 0.00 | 98 | 958.3 |
| 20260902072013 | 52 | 120 | 4.3 | 7.8 | 0.00 | 0.00 | 0.00 | 98 | 958.3 |
| 20260902071513 | 51 | 82 | 4.3 | 7.0 | 0.00 | 0.00 | 0.00 | 98 | 958.2 |
| 20260902071013 | 51 | 63 | 3.5 | 7.0 | 0.00 | 0.00 | 0.00 | 98 | 958.2 |
| 20260902070513 | 51 | 64 | 2.6 | 7.0 | 0.00 | 0.00 | 0.00 | 98 | 958.2 |
| 20260902070013 | 51 | 28 | 3.5 | 7.0 | 0.00 | 0.00 | 0.00 | 98 | 958.2 |
| 20260902065513 | 50 | 75 | 4.3 | 7.0 | 0.00 | 0.00 | 0.00 | 98 | 958.3 |
| 20260902065013 | 50 | 65 | 4.3 | 7.0 | 0.00 | 0.00 | 0.00 | 98 | 958.2 |
| 20260902064513 | 50 | 82 | 4.3 | 7.0 | 0.00 | 0.00 | 0.00 | 98 | 958.4 |
| 20260902064013 | 50 | 58 | 4.3 | 7.0 | 0.00 | 0.00 | 0.00 | 98 | 958.4 |
| 20260902063513 | 50 | 59 | 5.2 | 7.0 | 0.00 | 0.00 | 0.00 | 99 | 958.5 |
| 20260902063013 | 49 | 72 | 5.2 | 8.7 | 0.00 | 0.00 | 0.00 | 99 | 958.4 |
| 20260902062512 | 49 | 81 | 5.2 | 8.7 | 0.00 | 0.00 | 0.00 | 99 | 958.4 |
| 20260902062012 | 49 | 79 | 5.2 | 7.8 | 0.00 | 0.00 | 0.00 | 99 | 958.4 |
| 20260902061512 | 49 | 68 | 4.3 | 7.8 | 0.00 | 0.00 | 0.00 | 99 | 958.5 |
| 20260902061012 | 48 | 72 | 4.3 | 7.0 | 0.00 | 0.00 | 0.00 | 99 | 958.4 |
| 20260902060512 | 48 | 65 | 4.3 | 7.0 | 0.00 | 0.00 | 0.00 | 99 | 958.3 |
| 20260902060012 | 48 | 64 | 4.3 | 7.0 | 0.00 | 0.00 | 0.00 | 99 | 958.5 |
| 20260902055512 | 48 | 13 | 3.5 | 7.0 | 0.00 | 0.00 | 0.00 | 98 | 958.5 |
| 20260902055012 | 48 | 60 | 2.6 | 7.0 | 0.00 | 0.00 | 0.00 | 98 | 958.5 |
| 20260902054512 | 48 | 29 | 3.5 | 10.4 | 0.00 | 0.00 | 0.00 | 98 | 958.4 |
| 20260902054012 | 48 | 53 | 4.3 | 10.4 | 0.00 | 0.00 | 0.00 | 98 | 958.5 |
| 20260902053512 | 48 | 67 | 5.2 | 10.4 | 0.00 | 0.00 | 0.00 | 98 | 958.5 |
| 20260902053012 | 48 | 64 | 5.2 | 8.7 | 0.00 | 0.00 | 0.00 | 98 | 958.5 |
| 20260902052512 | 48 | 68 | 5.2 | 8.7 | 0.00 | 0.00 | 0.00 | 98 | 958.6 |
| 20260902052012 | 47 | 76 | 4.3 | 7.0 | 0.00 | 0.00 | 0.00 | 98 | 958.6 |
| 20260902051512 | 47 | 58 | 3.5 | 6.1 | 0.00 | 0.00 | 0.00 | 98 | 958.6 |
| 20260902051011 | 47 | 77 | 2.6 | 5.2 | 0.00 | 0.00 | 0.00 | 98 | 958.5 |
| 20260902050511 | 46 | 346 | 2.6 | 5.2 | 0.00 | 0.00 | 0.00 | 98 | 958.5 |
| 20260902050011 | 46 | 323 | 2.6 | 4.3 | 0.00 | 0.00 | 0.00 | 98 | 958.7 |
| 20260902045511 | 46 | 331 | 2.6 | 5.2 | 0.00 | 0.00 | 0.00 | 98 | 958.6 |
| 20260902045011 | 47 | 316 | 2.6 | 5.2 | 0.00 | 0.00 | 0.00 | 97 | 958.6 |
| 20260902044511 | 47 | 312 | 2.6 | 5.2 | 0.00 | 0.00 | 0.00 | 97 | 958.6 |
| 20260902044011 | 47 | 356 | 2.6 | 4.3 | 0.00 | 0.00 | 0.00 | 97 | 958.7 |
| 20260902043511 | 47 | 338 | 2.6 | 4.3 | 0.00 | 0.00 | 0.00 | 97 | 958.7 |
| 20260902043011 | 47 | 357 | 1.7 | 5.2 | 0.00 | 0.00 | 0.00 | 97 | 958.7 |
| 20260902042511 | 47 | 9 | 1.7 | 5.2 | 0.00 | 0.00 | 0.00 | 97 | 958.8 |
| 20260902042011 | 47 | 358 | 1.7 | 5.2 | 0.00 | 0.00 | 0.00 | 98 | 958.9 |
| 20260902041511 | 46 | 76 | 1.7 | 7.0 | 0.00 | 0.00 | 0.00 | 98 | 958.9 |
| 20260902041011 | 46 | 353 | 2.6 | 7.0 | 0.00 | 0.00 | 0.00 | 99 | 958.9 |
| 20260902040511 | 46 | 25 | 2.6 | 5.2 | 0.00 | 0.00 | 0.00 | 99 | 958.9 |
| 20260902040011 | 45 | 354 | 2.6 | 5.2 | 0.00 | 0.00 | 0.00 | 10 | 959.0 |
| 20260902035511 | 44 | 345 | 2.6 | 4.3 | 0.00 | 0.00 | 0.00 | 10 | 959.0 |
| 20260902035011 | 44 | 321 | 2.6 | 4.3 | 0.00 | 0.00 | 0.00 | 10 | 959.1 |
| 20260902034510 | 43 | 327 | 2.6 | 4.3 | 0.00 | 0.00 | 0.00 | 10 | 959.0 |
| 20260902034010 | 43 | 316 | 3.5 | 4.3 | 0.00 | 0.00 | 0.00 | 10 | 959.0 |
| 20260902033510 | 43 | 306 | 3.5 | 4.3 | 0.00 | 0.00 | 0.00 | 10 | 959.0 |
| 20260902033010 | 44 | 305 | 3.5 | 4.3 | 0.00 | 0.00 | 0.00 | 10 | 959.1 |
| 20260902032510 | 44 | 306 | 3.5 | 4.3 | 0.00 | 0.00 | 0.00 | 10 | 959.1 |
| 20260902032010 | 44 | 331 | 3.5 | 5.2 | 0.00 | 0.00 | 0.00 | 10 | 959.2 |
| 20260902031510 | 44 | 315 | 3.5 | 5.2 | 0.00 | 0.00 | 0.00 | 10 | 959.3 |
| 20260902031010 | 44 | 318 | 3.5 | 5.2 | 0.00 | 0.00 | 0.00 | 99 | 959.1 |
| 20260902030510 | 44 | 330 | 3.5 | 6.1 | 0.00 | 0.00 | 0.00 | 99 | 959.2 |
| 20260902030010 | 44 | 332 | 2.6 | 6.1 | 0.00 | 0.00 | 0.00 | 98 | 959.4 |
| 20260902025510 | 45 | 340 | 2.6 | 5.2 | 0.00 | 0.00 | 0.00 | 98 | 959.4 |
| 20260902025010 | 44 | 319 | 3.5 | 5.2 | 0.00 | 0.00 | 0.00 | 98 | 959.5 |
| 20260902024510 | 45 | 306 | 3.5 | 5.2 | 0.00 | 0.00 | 0.00 | 98 | 959.5 |
| 20260902024010 | 45 | 309 | 3.5 | 5.2 | 0.00 | 0.00 | 0.00 | 98 | 959.6 |
| 20260902023510 | 45 | 307 | 2.6 | 5.2 | 0.00 | 0.00 | 0.00 | 97 | 959.6 |
| 20260902023010 | 45 | 11 | 2.6 | 4.3 | 0.00 | 0.00 | 0.00 | 97 | 959.7 |
| 20260902022509 | 45 | 317 | 2.6 | 5.2 | 0.00 | 0.00 | 0.00 | 97 | 959.7 |
| 20260902022009 | 45 | 330 | 3.5 | 5.2 | 0.00 | 0.00 | 0.00 | 96 | 959.8 |
| 20260902021509 | 45 | 303 | 2.6 | 5.2 | 0.00 | 0.00 | 0.00 | 95 | 959.7 |
| 20260902021009 | 46 | 322 | 2.6 | 4.3 | 0.00 | 0.00 | 0.00 | 95 | 959.7 |
| 20260902020509 | 46 | 317 | 2.6 | 4.3 | 0.00 | 0.00 | 0.00 | 94 | 959.8 |
| 20260902020009 | 46 | 328 | 2.6 | 5.2 | 0.00 | 0.00 | 0.00 | 93 | 959.9 |
| 20260902015509 | 46 | 321 | 3.5 | 5.2 | 0.00 | 0.00 | 0.00 | 92 | 960.0 |
| 20260902015009 | 47 | 341 | 2.6 | 4.3 | 0.00 | 0.00 | 0.00 | 91 | 959.9 |
| 20260902014509 | 47 | 317 | 2.6 | 4.3 | 0.00 | 0.00 | 0.00 | 90 | 959.9 |
| 20260902014009 | 48 | 333 | 2.6 | 5.2 | 0.00 | 0.00 | 0.00 | 89 | 960.1 |
| 20260902013509 | 48 | 346 | 2.6 | 5.2 | 0.00 | 0.00 | 0.00 | 89 | 960.1 |
| 20260902013009 | 48 | 12 | 2.6 | 5.2 | 0.00 | 0.00 | 0.00 | 89 | 960.0 |
| 20260902012509 | 48 | 18 | 2.6 | 5.2 | 0.00 | 0.00 | 0.00 | 89 | 960.1 |
| 20260902012009 | 48 | 348 | 2.6 | 5.2 | 0.00 | 0.00 | 0.00 | 90 | 960.1 |
| 20260902011508 | 47 | 359 | 2.6 | 5.2 | 0.00 | 0.00 | 0.00 | 90 | 960.2 |
| 20260902011008 | 47 | 341 | 2.6 | 5.2 | 0.00 | 0.00 | 0.00 | 90 | 960.2 |
| 20260902010508 | 47 | 328 | 2.6 | 4.3 | 0.00 | 0.00 | 0.00 | 90 | 960.4 |
| 20260902010008 | 47 | 13 | 2.6 | 4.3 | 0.00 | 0.00 | 0.00 | 89 | 960.3 |
| 20260902005508 | 48 | 330 | 2.6 | 5.2 | 0.00 | 0.00 | 0.00 | 87 | 960.4 |
| 20260902005008 | 48 | 356 | 2.6 | 5.2 | 0.00 | 0.00 | 0.00 | 87 | 960.4 |
| 20260902004508 | 48 | 353 | 2.6 | 5.2 | 0.00 | 0.00 | 0.00 | 87 | 960.5 |
| 20260902004008 | 48 | 356 | 2.6 | 5.2 | 0.00 | 0.00 | 0.00 | 87 | 960.6 |
| 20260902003508 | 48 | 358 | 1.7 | 4.3 | 0.00 | 0.00 | 0.00 | 87 | 960.5 |
| 20260902003008 | 48 | 356 | 1.7 | 2.6 | 0.00 | 0.00 | 0.00 | 87 | 960.6 |
| 20260902002508 | 48 | 330 | 1.7 | 4.3 | 0.00 | 0.00 | 0.00 | 87 | 960.7 |
| 20260902002008 | 48 | 317 | 1.7 | 4.3 | 0.00 | 0.00 | 0.00 | 86 | 960.7 |
| 20260902001508 | 48 | 340 | 1.7 | 4.3 | 0.00 | 0.00 | 0.00 | 86 | 960.7 |
| 20260902001008 | 48 | 348 | 1.7 | 4.3 | 0.00 | 0.00 | 0.00 | 87 | 960.7 |
| 20260902000508 | 48 | 345 | 1.7 | 4.3 | 0.00 | 0.00 | 0.00 | 87 | 960.7 |
| 20260902000007 | 49 | 350 | 2.6 | 4.3 | 0.00 | 0.00 | 0.00 | 87 | 960.9 |
| 20260901235507 | 48 | 326 | 1.7 | 4.3 | 0.00 | 0.00 | 0.00 | 87 | 960.8 |
| 20260901235007 | 48 | 347 | 1.7 | 3.5 | 0.00 | 0.00 | 0.00 | 87 | 961.0 |
| 20260901234507 | 48 | 15 | 1.7 | 4.3 | 0.00 | 0.00 | 0.00 | 87 | 961.2 |
| 20260901234007 | 49 | 8 | 2.6 | 5.2 | 0.00 | 0.00 | 0.00 | 87 | 961.1 |
| 20260901233507 | 49 | 56 | 3.5 | 5.2 | 0.00 | 0.00 | 0.00 | 87 | 961.2 |
| 20260901233007 | 49 | 63 | 3.5 | 6.1 | 0.00 | 0.00 | 0.00 | 87 | 961.2 |
| 20260901232507 | 49 | 57 | 3.5 | 6.1 | 0.00 | 0.00 | 0.00 | 87 | 961.2 |
| 20260901232007 | 49 | 75 | 2.6 | 5.2 | 0.00 | 0.00 | 0.00 | 87 | 961.2 |
| 20260901231507 | 49 | 31 | 1.7 | 5.2 | 0.00 | 0.00 | 0.00 | 88 | 961.2 |
| 20260901231007 | 49 | 30 | 1.7 | 4.3 | 0.00 | 0.00 | 0.00 | 89 | 961.2 |
| 20260901230507 | 49 | 353 | 1.7 | 5.2 | 0.00 | 0.00 | 0.00 | 90 | 961.2 |
| 20260901230007 | 49 | 5 | 1.7 | 7.8 | 0.00 | 0.00 | 0.00 | 90 | 961.2 |
| 20260901225507 | 49 | 35 | 1.7 | 7.8 | 0.00 | 0.00 | 0.00 | 91 | 961.2 |
| 20260901225007 | 49 | 4 | 1.7 | 5.2 | 0.00 | 0.00 | 0.00 | 91 | 961.2 |
| 20260901224506 | 49 | 58 | 1.7 | 5.2 | 0.00 | 0.00 | 0.00 | 91 | 961.3 |
| 20260901224006 | 49 | 59 | 1.7 | 4.3 | 0.00 | 0.00 | 0.00 | 91 | 961.3 |
| 20260901223506 | 49 | 352 | 1.7 | 4.3 | 0.00 | 0.00 | 0.00 | 92 | 961.4 |
| 20260901223006 | 49 | 52 | 1.7 | 4.3 | 0.00 | 0.00 | 0.00 | 93 | 961.4 |
| 20260901222506 | 49 | 87 | 1.7 | 5.2 | 0.00 | 0.00 | 0.00 | 94 | 961.3 |
| 20260901222006 | 49 | 54 | 1.7 | 5.2 | 0.00 | 0.00 | 0.00 | 94 | 961.4 |
| 20260901221506 | 49 | 16 | 1.7 | 4.3 | 0.00 | 0.00 | 0.00 | 93 | 961.4 |
| 20260901221006 | 49 | 352 | 2.6 | 5.2 | 0.00 | 0.00 | 0.00 | 91 | 961.5 |
| 20260901220506 | 49 | 2 | 2.6 | 5.2 | 0.00 | 0.00 | 0.00 | 89 | 961.5 |
| 20260901220006 | 49 | 350 | 2.6 | 4.3 | 0.00 | 0.00 | 0.00 | 87 | 961.5 |
| 20260901215506 | 50 | 350 | 2.6 | 5.2 | 0.00 | 0.00 | 0.00 | 87 | 961.5 |
| 20260901215006 | 50 | 331 | 2.6 | 5.2 | 0.00 | 0.00 | 0.00 | 85 | 961.5 |
| 20260901214506 | 50 | 341 | 2.6 | 5.2 | 0.00 | 0.00 | 0.00 | 85 | 961.5 |
| 20260901214006 | 50 | 338 | 2.6 | 5.2 | 0.00 | 0.00 | 0.00 | 85 | 961.5 |
| 20260901213506 | 51 | 339 | 2.6 | 3.5 | 0.00 | 0.00 | 0.00 | 85 | 961.5 |
| 20260901213006 | 51 | 325 | 2.6 | 3.5 | 0.00 | 0.00 | 0.00 | 84 | 961.6 |
| 20260901212506 | 51 | 325 | 2.6 | 4.3 | 0.00 | 0.00 | 0.00 | 85 | 961.6 |
| 20260901212005 | 51 | 335 | 2.6 | 4.3 | 0.00 | 0.00 | 0.00 | 84 | 961.7 |
| 20260901211505 | 51 | 325 | 2.6 | 4.3 | 0.00 | 0.00 | 0.00 | 85 | 961.7 |
| 20260901211005 | 51 | 334 | 2.6 | 4.3 | 0.00 | 0.00 | 0.00 | 84 | 961.8 |
| 20260901210505 | 51 | 325 | 2.6 | 4.3 | 0.00 | 0.00 | 0.00 | 84 | 961.7 |
| 20260901210005 | 51 | 324 | 2.6 | 4.3 | 0.00 | 0.00 | 0.00 | 84 | 961.7 |
| 20260901205505 | 51 | 337 | 2.6 | 3.5 | 0.00 | 0.00 | 0.00 | 84 | 961.8 |
| 20260901205005 | 51 | 330 | 2.6 | 3.5 | 0.00 | 0.00 | 0.00 | 85 | 961.8 |
| 20260901204505 | 51 | 337 | 2.6 | 3.5 | 0.00 | 0.00 | 0.00 | 85 | 961.8 |
| 20260901204005 | 51 | 315 | 2.6 | 3.5 | 0.00 | 0.00 | 0.00 | 85 | 961.8 |
| 20260901203505 | 51 | 319 | 2.6 | 3.5 | 0.00 | 0.00 | 0.00 | 85 | 961.8 |
| 20260901203005 | 51 | 327 | 2.6 | 3.5 | 0.00 | 0.00 | 0.00 | 85 | 961.8 |
| 20260901202505 | 51 | 320 | 2.6 | 3.5 | 0.00 | 0.00 | 0.00 | 85 | 961.8 |
| 20260901202005 | 51 | 341 | 2.6 | 3.5 | 0.00 | 0.00 | 0.00 | 85 | 961.8 |
| 20260901201504 | 51 | 323 | 2.6 | 3.5 | 0.00 | 0.00 | 0.00 | 84 | 961.7 |
| 20260901201004 | 51 | 303 | 2.6 | 4.3 | 0.00 | 0.00 | 0.00 | 84 | 961.8 |
| 20260901200504 | 51 | 317 | 2.6 | 4.3 | 0.00 | 0.00 | 0.00 | 84 | 961.8 |
| 20260901200004 | 51 | 297 | 2.6 | 3.5 | 0.00 | 0.00 | 0.00 | 84 | 961.9 |
| 20260901195504 | 51 | 304 | 2.6 | 3.5 | 0.00 | 0.00 | 0.00 | 85 | 961.8 |
| 20260901195004 | 51 | 310 | 2.6 | 4.3 | 0.00 | 0.00 | 0.00 | 85 | 961.8 |
| 20260901194504 | 51 | 316 | 2.6 | 4.3 | 0.00 | 0.00 | 0.00 | 83 | 962.0 |
| 20260901194004 | 51 | 296 | 0.9 | 2.6 | 0.00 | 0.00 | 0.00 | 84 | 961.9 |
| 20260901193504 | 52 | 306 | 0.9 | 2.6 | 0.00 | 0.00 | 0.00 | 85 | 961.9 |
| 20260901193004 | 52 | 285 | 0.9 | 1.7 | 0.00 | 0.00 | 0.00 | 85 | 962.0 |
| 20260901192504 | 52 | 265 | 0.0 | 1.7 | 0.00 | 0.00 | 0.00 | 86 | 962.1 |
| 20260901192004 | 52 | 284 | 0.9 | 2.6 | 0.00 | 0.00 | 0.00 | 84 | 962.1 |
| 20260901191504 | 52 | 100 | 0.9 | 2.6 | 0.00 | 0.00 | 0.00 | 87 | 962.1 |
| 20260901191003 | 52 | 314 | 0.9 | 1.7 | 0.00 | 0.00 | 0.00 | 84 | 962.0 |
| 20260901190503 | 52 | 328 | 0.9 | 1.7 | 0.00 | 0.00 | 0.00 | 84 | 962.0 |
| 20260901190003 | 52 | 272 | 0.9 | 1.7 | 0.00 | 0.00 | 0.00 | 85 | 962.0 |
| 20260901185503 | 52 | 261 | 0.9 | 1.7 | 0.00 | 0.00 | 0.00 | 84 | 961.9 |
| 20260901185003 | 52 | 280 | 0.9 | 1.7 | 0.00 | 0.00 | 0.00 | 82 | 961.9 |
| 20260901184503 | 53 | 308 | 0.9 | 1.7 | 0.00 | 0.00 | 0.00 | 82 | 961.9 |
| 20260901184003 | 53 | 285 | 0.9 | 1.7 | 0.00 | 0.00 | 0.00 | 81 | 961.9 |
| 20260901183503 | 53 | 283 | 0.9 | 1.7 | 0.00 | 0.00 | 0.00 | 80 | 961.9 |
| 20260901183003 | 54 | 305 | 0.9 | 1.7 | 0.00 | 0.00 | 0.00 | 79 | 962.0 |
| 20260901182503 | 54 | 314 | 0.9 | 0.9 | 0.00 | 0.00 | 0.00 | 80 | 962.0 |
| 20260901182003 | 54 | 314 | 0.9 | 1.7 | 0.00 | 0.00 | 0.00 | 80 | 962.0 |
| 20260901181503 | 54 | 333 | 0.9 | 1.7 | 0.00 | 0.00 | 0.00 | 80 | 962.0 |
| 20260901181002 | 54 | 313 | 0.9 | 1.7 | 0.00 | 0.00 | 0.00 | 79 | 962.0 |
| 20260901180502 | 54 | 309 | 0.9 | 1.7 | 0.00 | 0.00 | 0.00 | 81 | 962.0 |
| 20260901180002 | 55 | 317 | 0.9 | 2.6 | 0.00 | 0.00 | 0.00 | 77 | 962.3 |
| 20260901175502 | 55 | 273 | 0.9 | 2.6 | 0.00 | 0.00 | 0.00 | 76 | 962.1 |
| 20260901175002 | 56 | 284 | 0.9 | 1.7 | 0.00 | 0.00 | 0.00 | 75 | 962.0 |
| 20260901174502 | 56 | 303 | 0.9 | 1.7 | 0.00 | 0.00 | 0.00 | 75 | 962.1 |
| 20260901174002 | 56 | 335 | 0.9 | 1.7 | 0.00 | 0.00 | 0.00 | 73 | 962.1 |
| 20260901173502 | 57 | 338 | 0.9 | 1.7 | 0.00 | 0.00 | 0.00 | 73 | 962.0 |
| 20260901173002 | 58 | 309 | 0.9 | 1.7 | 0.00 | 0.00 | 0.00 | 70 | 961.9 |
| 20260901172502 | 58 | 328 | 0.9 | 1.7 | 0.00 | 0.00 | 0.00 | 70 | 961.9 |
| 20260901172002 | 58 | 323 | 0.9 | 1.7 | 0.00 | 0.00 | 0.00 | 72 | 961.9 |
| 20260901171502 | 58 | 86 | 0.9 | 1.7 | 0.00 | 0.00 | 0.00 | 68 | 962.0 |
| 20260901171002 | 58 | 358 | 0.9 | 1.7 | 0.00 | 0.00 | 0.00 | 68 | 962.0 |
| 20260901170502 | 58 | 310 | 0.9 | 3.5 | 0.00 | 0.00 | 0.00 | 69 | 962.0 |
| 20260901170001 | 58 | 343 | 0.9 | 3.5 | 0.00 | 0.00 | 0.00 | 68 | 962.0 |
| 20260901165501 | 59 | 6 | 0.9 | 2.6 | 0.00 | 0.00 | 0.00 | 67 | 962.1 |
| 20260901165001 | 59 | 28 | 0.9 | 2.6 | 0.00 | 0.00 | 0.00 | 68 | 962.1 |
| 20260901164501 | 59 | 268 | 1.7 | 3.5 | 0.00 | 0.00 | 0.00 | 66 | 962.1 |
| 20260901164001 | 59 | 276 | 1.7 | 3.5 | 0.00 | 0.00 | 0.00 | 66 | 962.2 |
| 20260901163501 | 59 | 257 | 0.9 | 3.5 | 0.00 | 0.00 | 0.00 | 65 | 962.3 |
| 20260901163001 | 59 | 27 | 0.9 | 3.5 | 0.00 | 0.00 | 0.00 | 67 | 962.3 |
| 20260901162501 | 59 | 356 | 1.7 | 6.1 | 0.00 | 0.00 | 0.00 | 65 | 962.2 |